CAPE
0 0 0 0 0 0 0 0 33 0 0 0 1 0 0 0 6 4 3 0 18 267 483 428 387 360 271 225 117 53 7 0 0 2 1 0 2 1 0 0 2 19 14 10
10 0 0 5 0 0 1 0 8 9 5 20 21 0 0 0 0 0 3 0 0 20 291 513 414 441 303 240 172 106 58 14 0 4 0 0 0 0 0 5 4 14 18 38
8 37 29 3 42 59 20 2 0 9 10 25 11 0 0 0 0 0 1 0 0 0 24 298 496 381 400 275 192 128 105 66 30 21 19 14 5 0 0 46 34 33 98 80
26 29 10 0 0 43 31 25 3 1 1 7 5 3 1 0 0 0 0 0 0 0 0 7 214 358 416 295 183 125 107 86 62 55 46 28 16 19 23 10 5 2 1 0
20 66 24 0 0 18 98 71 68 39 38 63 25 4 4 0 0 0 0 0 0 0 0 0 22 172 259 314 248 160 109 95 71 63 68 48 5 6 2 2 1 1 1 1
39 55 17 3 0 6 8 238 174 199 210 133 60 60 78 0 0 0 0 0 0 0 0 0 0 1 84 215 240 205 201 147 62 11 1 3 1 1 1 1 1 1 1 2
21 40 47 49 51 22 146 105 135 156 238 182 187 152 18 0 9 1 0 0 0 0 0 0 17 24 67 105 99 22 0 2 1 1 1 1 1 0 0 1 1 1 1 1
20 65 23 1 18 49 33 196 160 129 192 325 181 31 4 0 0 0 0 1 1 6 2 2 4 28 4 2 3 2 1 0 0 1 0 0 0 0 1 0 1 1 1 1
77 42 6 0 14 22 23 23 5 112 308 254 157 26 18 13 0 0 4 5 3 7 2 2 3 2 3 4 0 0 1 1 1 0 0 0 0 1 1 1 0 1 1 2
0 7 1 0 0 0 0 0 3 4 2 120 170 129 23 3 0 0 3 2 1 1 2 3 2 1 3 1 0 0 1 1 1 0 1 1 1 1 1 1 1 1 1 2
0 0 6 3 0 0 0 0 0 0 40 94 95 62 15 0 2 3 3 1 1 2 1 1 1 1 0 0 0 2 0 0 1 1 2 2 1 1 1 0 0 1 1 1
57 3 2 1 0 0 0 0 0 0 15 0 15 2 0 0 0 0 0 0 0 0 0 0 0 0 0 0 0 0 0 1 1 1 1 1 1 3 7 3 4 3 2 4
5 4 0 0 4 0 0 0 0 0 0 0 0 0 0 1 0 0 0 1 1 3 2 0 0 1 1 0 0 0 0 1 3 3 2 2 3 3 2 10 6 4 1 2
1 1 0 2 3 1 0 0 0 0 0 0 0 0 1 1 0 1 3 3 2 1 1 1 1 1 1 0 0 0 1 1 1 2 2 3 6 6 9 8 12 16 8 9
0 0 6 5 0 0 0 0 0 0 0 0 1 1 1 1 2 2 0 0 0 0 2 2 3 4 2 1 1 2 0 0 1 1 3 5 8 9 13 10 9 10 10 6
0 0 1 2 0 0 0 0 1 1 1 2 2 2 1 1 1 0 0 0 0 2 1 1 1 3 2 1 0 0 0 2 3 5 8 7 10 10 9 7 7 9 10 11
1 0 1 2 3 0 0 0 1 3 3 2 2 2 1 0 0 0 0 1 2 2 2 2 1 2 4 4 2 2 2 5 4 5 7 8 8 6 4 6 9 9 11 4
5 7 5 5 3 1 0 1 1 1 1 2 1 1 1 2 3 2 2 2 1 0 1 3 4 5 6 5 5 8 8 5 5 6 5 6 6 6 7 7 7 8 10 3
4 4 6 5 4 2 2 2 3 2 2 2 2 2 2 2 3 4 2 1 2 2 6 5 5 5 5 7 5 6 6 3 3 3 5 5 9 8 10 12 11 9 9 8
5 6 4 3 4 4 6 5 3 2 3 3 3 2 2 3 2 3 5 10 9 11 7 7 5 3 1 1 0 1 3 4 2 6 7 6 8 8 4 1 6 10 11 10
7 7 5 4 3 2 2 3 1 3 2 3 2 2 4 3 6 3 3 3 10 6 3 0 0 0 0 0 0 4 4 4 3 5 5 5 5 6 7 5 7 8 7 8
8 7 6 6 5 7 7 6 5 4 3 2 2 2 3 3 4 6 4 5 5 0 0 0 0 0 0 0 1 2 1 1 3 4 4 5 5 5 5 5 5 6 6 7
11 10 9 6 6 8 6 4 4 3 2 1 1 2 5 5 7 4 1 0 0 0 0 2 0 0 0 3 4 3 2 2 2 3 4 5 5 5 4 3 5 5 5 3
9 8 9 10 8 5 4 7 5 5 4 4 4 5 5 5 3 1 1 0 0 1 2 1 0 0 0 3 3 3 3 3 5 4 2 1 5 3 3 3 2 3 2 0
6 7 5 4 3 5 5 6 5 4 4 5 4 2 1 3 3 6 3 2 0 0 1 0 0 0 2 3 2 2 4 4 5 4 4 3 3 2 4 3 1 3 2 3
6 5 6 7 9 8 8 7 6 6 3 5 7 8 7 4 2 1 1 0 0 0 2 4 2 3 4 3 3 2 4 3 3 2 1 2 3 3 2 1 1 2 3 3
6 4 4 3 3 5 4 2 3 4 4 4 3 3 3 2 1 0 0 2 2 2 5 6 5 1 3 3 3 3 2 3 0 2 3 3 3 3 1 2 2 2 1 1
CIN
0 0 0 0 0 0 0 0 0 0 0 0 0 0 -8 -1 -62 -72 -67 0 -75 -132 -128 -169 -179 -218 -258 -267 -339 -371 -402 0 0 -80 -83 -49 -62 -16 0 0 0 -95 -23 0
0 -1 -1 -11 0 -1 0 0 0 0 0 0 0 0 0 0 -1 0 -80 -93 -1 -141 -115 -152 -203 -199 -262 -299 -366 -390 -409 -400 -7 -371 -6 0 0 0 0 0 -2 -101 -82 -42
0 -1 -1 0 -8 -12 -4 -2 0 0 0 -1 -1 0 0 -26 0 0 -39 0 0 0 -97 -151 -170 -261 -241 -285 -331 -386 -403 -384 -381 -360 -332 -298 -271 -5 0 -155 -154 -132 -70 -43
-1 -2 0 0 -5 -2 -16 0 -6 0 0 -1 -1 -4 -7 -46 0 0 0 0 0 0 0 -96 -175 -219 -207 -264 -323 -377 -373 -371 -382 -352 -336 -303 -269 -232 -175 0 0 0 0 0
0 0 -1 0 0 -4 0 -1 -1 0 0 0 -9 -25 -33 0 0 0 0 0 0 0 0 0 -180 -183 -250 -253 -292 -356 -362 -370 -381 -392 -364 -351 -62 0 0 0 0 0 0 0
0 0 0 -24 0 -12 -1 0 -6 -8 -9 -14 -18 -8 -5 0 0 0 0 0 0 0 0 0 0 -266 -277 -287 -310 -350 -376 -392 -472 -488 0 0 0 0 0 0 0 0 0 0
-1 -1 0 -4 -22 -9 0 -2 -11 -9 -2 -7 0 -12 -46 -45 -88 -52 0 0 0 0 0 -259 -581 -460 -398 -425 -453 -331 0 0 0 0 0 0 0 0 0 0 0 0 0 0
0 0 0 -11 -9 -17 -2 -5 -1 -4 0 -4 -5 -28 -19 0 -17 0 0 0 0 0 0 0 -401 -533 -217 0 0 0 0 0 0 0 0 0 0 0 0 0 0 0 0 0
0 0 -7 0 -9 -12 -40 -35 -3 -30 -8 -9 -2 -26 -13 -54 0 0 0 0 0 0 0 0 0 0 0 0 0 0 0 0 0 0 0 0 0 0 0 0 0 0 0 0
0 0 0 0 0 0 0 0 -89 -91 -48 -27 -21 -9 -47 -107 0 0 0 0 0 0 0 0 0 0 0 0 0 0 0 0 0 0 0 0 0 0 0 0 0 0 0 0
0 0 -29 -3 0 0 0 0 0 0 -72 -62 -46 -49 -99 0 0 0 0 0 0 0 0 0 0 0 0 0 0 0 0 0 0 0 0 0 0 0 0 0 0 0 0 0
0 0 0 -16 0 0 0 0 0 0 -127 0 -148 -23 0 0 0 0 0 0 0 0 0 0 0 0 0 0 0 0 0 0 0 0 0 0 0 0 0 0 0 0 0 0
-1 0 0 0 0 0 0 0 0 0 0 0 0 0 0 0 0 0 0 0 0 0 0 0 0 0 0 0 0 0 0 0 0 0 0 0 0 0 0 0 0 0 0 0
0 0 0 0 0 0 0 0 0 0 0 0 0 0 0 0 0 0 0 0 0 0 0 0 0 0 0 0 0 0 0 0 0 0 0 0 0 0 0 0 0 0 0 0
0 0 0 0 0 0 0 0 0 0 0 0 0 0 0 0 0 0 0 0 0 0 0 0 0 0 0 0 0 0 0 0 0 0 0 0 0 0 0 0 0 0 0 0
0 0 0 0 0 0 0 0 0 0 0 0 0 0 0 0 0 0 0 0 0 0 0 0 0 0 0 0 0 0 0 0 0 0 0 0 0 0 0 0 0 0 0 0
0 0 0 0 0 0 0 0 0 0 0 0 0 0 0 0 0 0 0 0 0 0 0 0 0 0 0 0 0 0 0 0 0 0 0 0 0 0 0 0 0 0 0 0
0 0 0 0 0 0 0 0 0 0 0 0 0 0 0 0 0 0 0 0 0 0 0 0 0 0 0 0 0 0 0 0 0 0 0 0 0 0 0 0 0 0 0 0
0 0 0 0 0 0 0 0 0 0 0 0 0 0 0 0 0 0 0 0 0 0 0 0 0 0 0 0 0 0 0 0 0 0 0 0 0 0 0 0 0 0 0 0
0 0 0 0 0 0 0 0 0 0 0 0 0 0 0 0 0 0 0 0 0 0 0 0 0 0 0 0 0 0 0 0 0 0 0 0 0 0 0 0 0 0 0 0
0 0 0 0 0 0 0 0 0 0 0 0 0 0 0 0 0 0 0 0 0 0 0 0 0 0 0 0 0 0 0 0 0 0 0 0 0 0 0 0 0 0 0 0
0 0 0 0 0 0 0 0 0 0 0 0 0 0 0 0 0 0 0 0 0 0 0 0 0 0 0 0 0 0 0 0 0 0 0 0 0 0 0 0 0 0 0 0
0 0 0 0 0 0 0 0 0 0 0 0 0 0 0 0 0 0 0 0 0 0 0 0 0 0 0 0 0 0 0 0 0 0 0 0 0 0 0 0 0 0 0 0
0 0 0 0 0 0 0 0 0 0 0 0 0 0 0 0 0 0 0 0 0 0 0 0 0 0 0 0 0 0 0 0 0 0 0 0 0 0 0 0 0 0 0 0
0 0 0 0 0 0 0 0 0 0 0 0 0 0 0 0 0 0 0 0 0 0 0 0 0 0 0 0 0 0 0 0 0 0 0 0 0 0 0 0 0 0 0 0
0 0 0 0 0 0 0 0 0 0 0 0 0 0 0 0 0 0 0 0 0 0 0 0 0 0 0 0 0 0 0 0 0 0 0 0 0 0 0 0 0 0 0 0
0 0 0 0 0 0 0 0 0 0 0 0 0 0 0 0 0 0 0 0 0 0 0 0 0 0 0 0 0 0 0 0 0 0 0 0 0 0 0 0 0 0 0 0
Wind_Speed
14 17 17 18 18 18 23 23 22 15 21 20 19 18 14 7 9 9 9 5 9 11 13 15 17 18 18 18 19 19 19 20 20 19 19 18 18 17 16 16 15 16 16 16
11 15 16 17 22 23 25 24 23 22 22 13 9 12 12 14 10 10 10 6 8 12 14 16 18 18 19 20 21 20 20 20 18 18 18 17 16 15 16 16 16 14 13 13
6 3 11 18 11 20 25 24 23 20 16 13 13 13 14 15 10 10 11 10 8 11 14 15 17 17 19 18 17 19 20 19 18 17 17 17 15 15 14 13 13 13 13 12
6 10 14 6 18 27 23 21 21 21 19 15 16 14 12 8 8 6 9 11 8 7 10 14 15 16 14 15 16 17 17 17 17 16 16 14 14 14 9 7 5 4 4 5
6 11 9 2 6 12 16 12 15 18 15 16 12 11 13 3 4 7 10 13 9 12 11 8 13 14 15 16 16 16 16 16 15 14 14 10 10 9 7 7 7 6 6 7
6 8 4 3 4 5 19 5 8 6 5 6 4 7 2 5 8 9 10 10 12 13 11 7 11 10 13 15 15 16 16 13 10 9 11 10 8 9 7 9 9 8 11 10
12 6 6 5 8 6 5 2 15 13 8 4 4 6 7 6 8 10 11 11 10 7 5 5 7 10 12 12 10 8 11 13 12 11 11 11 11 10 10 11 11 11 13 11
10 6 8 13 2 6 1 15 8 5 4 3 3 4 7 4 5 11 12 11 10 5 4 4 5 7 10 11 11 11 11 12 12 12 9 10 14 11 11 11 13 12 12 11
5 4 5 10 8 8 11 11 11 13 13 12 12 11 7 6 5 10 11 10 9 6 11 10 7 10 11 10 12 14 13 12 12 13 11 10 11 12 10 10 10 9 9 9
4 8 6 8 8 11 13 14 14 13 12 12 11 11 3 4 6 8 9 11 10 8 13 12 10 12 12 11 12 15 15 13 11 13 12 11 8 7 8 8 8 8 8 8
6 5 11 5 13 16 17 17 17 16 10 9 11 5 2 6 7 8 9 13 10 10 9 11 10 10 12 13 14 15 15 13 12 11 13 13 12 9 8 9 8 8 8 8
3 5 7 10 17 17 17 17 16 14 9 13 10 9 8 8 8 10 11 11 13 11 10 11 11 13 11 11 14 15 14 11 10 10 11 10 12 15 26 22 24 21 15 12
6 12 12 11 10 17 15 13 13 11 10 9 12 11 12 11 12 14 13 12 12 12 10 10 10 14 12 11 12 14 14 12 10 11 9 10 10 10 14 18 26 23 22 21
9 12 5 12 9 13 14 11 6 7 9 9 9 11 11 10 12 13 14 14 14 15 14 13 15 17 12 10 12 15 16 16 10 10 9 9 9 9 10 10 11 11 18 17
12 10 8 9 10 11 11 9 6 7 8 9 10 9 14 10 13 13 12 13 14 16 15 15 17 16 14 13 15 16 13 11 11 10 9 10 8 9 9 11 10 10 9 11
13 9 9 9 9 10 10 9 6 6 7 8 10 11 14 13 13 14 15 14 15 14 15 14 14 12 12 13 16 15 13 17 12 9 9 10 10 10 10 10 9 8 8 7
10 9 12 9 8 7 7 7 6 6 7 8 11 11 12 16 16 16 17 15 16 16 15 14 13 12 13 14 14 10 10 11 15 11 11 10 10 10 9 9 9 8 8 8
8 7 7 6 5 4 6 8 8 8 8 10 10 10 11 13 15 15 15 14 16 18 17 14 13 14 14 14 13 11 10 11 11 10 9 10 10 9 9 9 8 7 7 7
7 6 7 7 5 6 7 8 10 11 11 12 12 12 12 12 13 14 13 16 16 17 14 14 18 16 16 15 13 11 11 11 11 10 10 11 10 9 8 8 7 7 6 6
8 8 9 10 11 10 11 11 13 14 12 12 13 13 15 14 12 16 17 20 16 11 13 14 15 15 15 14 13 10 11 11 11 10 9 9 9 9 8 9 7 6 5 5
9 10 11 12 13 13 12 12 13 14 13 15 14 14 15 13 13 12 15 14 14 14 14 16 12 10 10 10 11 11 11 11 10 9 9 8 8 8 7 7 6 5 4 4
8 10 11 12 13 14 13 14 14 13 14 14 14 13 14 15 16 17 15 13 9 14 11 10 10 14 11 13 10 10 11 10 9 8 8 7 7 6 6 5 5 4 4 4
10 11 12 12 13 15 15 14 14 14 15 15 14 14 13 10 9 9 11 12 10 13 11 10 13 15 14 10 10 10 10 10 9 8 7 6 6 5 5 5 4 4 5 5
11 12 12 12 12 14 16 14 14 14 14 14 13 11 10 9 11 10 10 12 14 13 11 10 12 14 13 9 9 9 8 8 7 6 5 5 4 4 4 4 5 5 4 4
11 11 11 11 12 10 12 11 11 12 13 13 13 12 13 9 8 8 8 8 12 11 10 13 14 13 9 8 8 7 6 6 5 4 4 4 4 4 5 5 4 5 4 4
9 8 8 10 8 7 7 6 8 7 8 9 9 8 9 8 8 8 8 9 9 9 8 7 6 6 7 6 7 6 5 4 4 5 4 4 4 4 4 4 4 4 4 5
8 7 7 7 7 7 6 7 7 8 8 8 9 8 8 8 8 8 8 7 7 7 6 5 5 6 5 5 5 4 4 4 4 4 4 4 4 4 4 4 4 5 5 5
Wind_Direction
255 268 285 286 281 272 261 242 243 255 250 250 249 260 270 291 304 313 328 298 226 216 203 198 198 199 197 193 194 193 199 202 203 206 207 209 211 205 208 216 219 227 228 231
273 260 260 284 281 274 257 262 263 256 256 265 285 269 268 268 280 294 304 305 268 229 220 209 197 200 198 192 191 191 201 208 206 205 207 210 211 207 204 209 217 222 225 234
270 252 305 269 315 308 256 240 249 255 250 243 247 251 258 269 282 281 294 307 311 277 229 222 207 196 199 195 187 194 198 202 204 208 213 212 209 209 212 210 216 226 235 245
286 290 249 358 354 296 272 241 243 249 256 259 257 264 260 318 307 310 332 292 302 297 272 236 220 201 198 191 190 195 198 200 199 201 208 210 213 217 203 205 199 154 121 104
247 244 289 346 336 314 328 276 245 250 257 265 274 278 272 306 343 350 341 315 328 309 284 252 223 202 195 192 189 192 195 198 195 196 198 188 178 168 145 129 114 103 101 98
245 251 267 162 188 253 320 236 354 11 349 334 290 249 189 32 5 21 21 346 337 323 306 243 203 197 193 190 193 195 192 179 165 155 159 163 134 116 97 97 93 88 80 78
234 266 279 26 355 218 263 39 318 329 322 4 342 349 322 336 12 30 24 10 346 330 305 248 186 189 185 173 189 160 151 152 144 134 124 116 105 103 104 102 98 91 85 73
225 239 238 12 44 5 4 286 0 318 312 9 359 16 28 349 12 35 29 28 3 19 49 55 155 168 149 131 119 113 109 102 100 99 101 108 109 105 105 108 104 101 97 84
243 220 62 27 304 16 343 335 347 323 313 320 308 306 350 12 56 49 52 44 28 39 64 44 75 102 106 102 102 98 93 88 89 91 93 96 107 113 111 112 115 113 109 104
239 149 77 283 35 7 354 340 326 312 301 297 293 288 304 53 26 80 72 65 42 39 54 51 57 74 86 88 93 95 93 88 85 83 84 82 83 88 99 108 112 112 111 105
282 301 319 156 24 1 352 356 352 341 317 319 300 318 87 78 67 49 58 79 70 48 53 63 51 70 87 92 95 90 88 86 79 80 82 75 64 68 68 58 90 109 104 109
2 39 308 318 354 3 351 356 353 349 12 24 33 70 68 55 55 56 56 51 67 62 48 53 59 56 62 90 101 101 91 87 89 91 86 91 87 84 69 75 79 80 80 90
342 334 309 311 329 0 348 358 358 3 25 40 44 53 62 65 52 58 56 56 62 60 56 62 63 64 41 47 86 92 93 97 93 89 92 94 92 86 96 73 79 83 88 91
13 345 334 0 333 341 334 340 356 25 38 56 70 75 74 74 69 67 65 62 61 57 57 57 58 54 47 66 78 86 86 83 83 80 84 91 97 103 100 97 99 89 73 82
356 348 323 330 349 354 342 346 9 25 37 58 64 75 81 71 77 74 72 72 68 63 55 56 58 53 55 61 70 70 74 78 76 80 82 82 83 85 92 99 102 108 105 85
329 328 1 359 356 0 3 4 30 39 57 63 75 75 88 88 80 74 67 65 72 65 63 61 61 56 62 69 74 73 69 73 74 75 76 81 82 84 85 86 86 77 68 56
343 344 341 340 352 10 21 22 37 60 80 86 92 98 98 96 90 81 76 70 69 67 58 55 56 55 58 64 74 74 75 69 76 74 75 74 75 79 83 87 89 82 71 51
335 328 334 334 346 28 47 53 55 58 68 78 84 90 87 90 93 86 80 78 72 63 54 52 55 58 59 64 69 72 72 73 75 77 79 78 79 79 80 82 83 86 88 70
6 8 20 32 41 74 77 77 74 68 62 68 74 72 71 69 80 84 82 73 67 66 53 54 59 59 60 56 67 73 79 81 81 79 81 84 79 77 78 78 78 72 64 57
31 46 57 64 64 79 87 87 89 83 78 74 78 76 76 69 69 77 74 70 62 65 64 61 64 64 65 61 67 74 77 79 78 74 70 76 78 82 80 67 68 67 65 64
52 59 68 74 74 74 76 81 86 82 78 84 79 74 70 67 63 69 74 72 58 58 61 59 59 65 64 70 69 72 74 74 71 71 74 77 81 75 73 71 68 60 51 39
68 70 73 79 83 82 82 85 84 84 83 84 86 84 85 79 74 70 57 69 67 61 63 60 57 55 65 71 70 73 76 77 78 79 77 73 75 76 71 65 56 47 33 19
77 78 75 78 82 84 79 74 75 78 79 75 74 73 70 67 62 73 74 59 68 68 71 65 65 66 67 67 69 70 70 69 69 66 68 68 68 65 59 43 33 21 12 6
77 75 75 79 84 84 81 78 80 78 79 77 73 72 81 85 81 79 86 80 74 69 67 67 66 65 66 66 65 62 62 64 65 70 80 66 66 62 47 28 13 0 358 341
79 84 86 86 84 82 89 93 90 84 83 80 75 70 69 64 79 80 77 72 69 73 71 61 58 58 60 62 62 63 63 55 50 67 58 56 42 26 15 15 352 350 333 320
76 73 68 64 73 84 90 94 90 90 90 85 78 74 73 73 76 75 71 69 67 70 70 63 55 65 65 60 65 55 53 60 54 50 36 32 14 357 359 349 330 325 323 322
83 89 91 82 66 67 76 85 91 86 83 88 88 79 80 79 76 76 73 72 71 72 73 65 59 50 47 39 47 46 36 50 26 15 14 355 341 344 341 324 324 322 317 311